RH
70 78 82 80 81 85 91 90 82 83 86 81 83 78 67 74 68 60 69 60 55 49 43 47 46 56 55 52 59 64 68 65 61 40 31 40 35 34 35 31 26 22 27 32 37 38 33 36 40 39 39 37 39 42 39 36 33 32 31 28 30 29 23 19 16 15 15 15 13 14 16 17 17 16 20 25 25 25 27 27 30 30 31 32 37 42 38 37 38 41 41 46 54 49 42 38 40
74 80 82 83 86 88 93 92 83 79 79 79 81 77 62 58 58 55 59 48 47 43 36 44 41 45 50 48 50 51 54 46 37 27 33 42 34 33 31 30 30 24 28 30 29 30 32 40 46 44 36 28 27 28 25 26 27 27 28 29 30 29 26 23 20 16 13 13 13 15 16 17 18 18 21 22 20 23 24 29 34 33 36 36 41 46 43 44 45 46 42 46 58 52 47 40 34
78 79 84 86 86 87 92 92 89 87 76 69 71 72 62 54 51 43 45 42 45 43 36 44 41 45 48 43 43 39 31 22 21 25 35 40 33 32 31 32 32 28 29 27 26 29 32 35 38 37 29 23 23 24 26 29 31 32 34 34 33 35 34 28 25 21 16 14 14 15 16 17 18 18 19 18 19 22 21 27 35 37 41 41 45 49 47 50 51 51 47 48 57 52 48 42 35
77 80 85 87 88 88 92 92 86 89 79 71 74 68 59 55 48 36 39 47 53 45 37 43 42 48 44 38 45 35 18 12 19 30 37 36 32 34 31 31 34 34 31 24 25 27 29 31 30 29 25 25 28 31 36 39 40 40 40 41 41 45 45 37 34 33 26 18 15 15 16 17 18 19 18 18 20 24 24 26 38 41 43 46 48 52 54 51 48 49 47 48 50 47 46 42 36
77 81 87 91 96 92 93 92 78 84 81 72 74 65 54 47 41 40 42 51 59 45 38 45 45 49 45 44 48 30 19 25 30 33 34 30 29 34 29 29 37 35 26 22 24 24 27 29 28 26 25 30 39 44 47 49 48 48 48 52 54 58 59 51 44 44 36 25 21 18 17 19 20 21 19 19 18 27 35 32 41 46 48 56 50 47 52 46 41 42 41 46 50 47 44 39 35
77 82 90 92 93 91 91 90 79 81 77 66 68 62 52 40 37 44 47 53 57 48 45 46 42 41 39 39 34 19 19 33 35 27 32 31 27 34 33 31 35 34 26 22 23 24 26 27 26 26 31 39 50 55 56 60 60 60 60 63 63 63 67 63 53 48 43 36 31 28 27 25 25 25 22 23 21 31 41 34 39 47 52 58 49 44 44 37 32 35 35 43 52 51 43 34 35
79 82 90 91 89 93 93 90 85 79 72 67 64 57 49 40 37 41 47 51 50 53 55 47 40 33 32 30 22 17 17 35 33 16 29 30 24 34 38 39 39 39 30 22 23 25 26 26 27 31 40 47 55 62 62 66 69 70 70 69 65 61 64 68 63 53 49 51 45 41 41 34 31 32 34 38 30 33 43 41 43 49 53 51 44 39 37 33 31 33 34 38 45 47 42 34 36
83 84 89 93 91 94 93 89 84 79 73 67 61 51 45 41 40 42 45 49 51 54 56 54 49 37 28 22 25 36 30 39 29 10 27 28 30 39 36 46 46 40 32 24 23 24 26 24 29 36 43 51 60 65 66 69 69 70 71 69 65 61 60 62 66 58 54 58 53 49 51 44 39 37 42 50 41 37 43 46 49 49 48 43 36 33 32 33 32 34 35 38 41 41 39 36 36
82 85 89 92 93 90 91 90 83 82 74 65 63 52 42 39 43 51 50 52 54 52 56 55 45 30 19 16 30 46 36 32 18 10 35 35 35 43 38 46 42 31 26 23 23 23 25 25 31 37 45 58 64 66 67 67 65 67 70 65 60 57 54 55 62 59 54 55 53 55 58 54 48 39 39 47 45 45 46 47 49 41 36 34 31 33 35 33 33 35 37 39 40 40 40 38 38
79 87 90 89 93 88 88 91 86 81 72 66 63 57 50 42 42 52 54 57 58 52 55 51 33 17 13 22 24 22 19 23 21 17 37 38 32 40 38 42 37 26 22 22 25 22 24 27 31 39 53 63 63 64 64 60 59 60 61 57 51 48 48 52 58 59 54 52 54 57 59 59 55 46 40 42 44 48 49 49 44 30 26 28 30 38 38 34 36 37 40 41 39 39 41 40 38
76 89 92 90 93 87 85 88 85 81 74 68 58 62 65 56 51 49 51 58 62 57 52 47 35 18 13 28 21 9 11 16 25 21 26 29 30 41 39 37 32 21 21 26 29 24 24 29 31 41 57 61 59 59 57 55 53 52 52 50 46 45 48 52 55 58 56 52 53 55 57 58 57 52 45 42 44 49 54 51 37 25 27 31 36 42 38 36 38 38 40 42 39 37 38 39 36
76 89 90 93 92 83 86 81 81 86 82 74 59 63 69 62 55 46 54 59 57 59 53 44 33 16 11 19 11 7 9 6 14 17 21 20 19 36 42 40 29 16 18 22 26 24 25 29 33 48 61 61 56 51 50 51 50 49 50 48 47 45 46 51 54 55 55 53 53 53 56 58 56 54 49 44 46 52 54 45 30 28 36 40 44 44 37 37 36 34 36 37 35 33 33 34 33
75 84 84 94 92 80 89 83 81 90 86 82 65 61 69 62 53 49 57 58 56 59 49 41 34 18 10 11 5 4 6 6 8 9 19 21 19 32 37 35 23 14 16 18 21 22 25 31 39 54 61 58 51 47 47 47 48 50 50 50 49 45 44 48 51 51 52 52 52 53 56 58 56 52 51 51 52 52 46 34 27 36 48 51 54 50 40 39 34 31 33 33 32 29 27 27 27
68 81 83 91 91 79 90 89 82 86 84 85 70 63 69 58 55 61 57 52 55 57 47 42 37 18 7 8 6 4 5 6 9 8 12 18 26 32 26 20 14 14 19 20 20 23 27 34 45 54 56 53 48 47 46 46 49 49 50 53 51 46 44 46 48 49 50 49 51 54 55 55 53 51 54 55 52 46 38 30 29 40 54 59 60 54 43 38 34 32 32 32 31 27 24 23 23
58 78 86 87 89 81 89 93 82 79 76 77 70 63 64 54 55 62 52 47 48 51 55 51 39 20 8 9 6 5 6 6 9 10 9 12 20 20 14 12 11 15 21 22 22 27 31 37 49 51 50 51 49 50 47 46 49 49 52 55 55 50 46 45 46 48 51 50 50 53 54 51 48 50 54 51 45 40 35 32 33 42 55 61 61 54 45 38 34 32 30 29 27 24 22 21 22
55 73 81 81 85 84 90 92 82 76 72 70 69 62 59 53 52 51 42 46 49 54 64 60 52 36 16 11 7 4 6 7 8 10 10 11 12 11 12 11 11 14 21 28 26 29 34 38 48 49 49 50 51 50 47 47 48 51 56 58 57 52 48 46 45 47 51 52 50 51 51 49 46 49 50 46 42 38 35 35 38 46 54 60 59 54 47 39 34 31 26 23 21 19 19 18 18
51 68 77 79 82 85 89 89 84 81 77 72 70 65 61 56 50 44 39 48 53 55 59 53 51 46 29 13 7 6 6 8 9 10 11 11 11 12 12 11 12 14 23 36 33 27 31 35 39 44 47 49 52 51 48 49 50 55 61 63 59 53 50 47 46 47 49 52 52 52 50 48 46 47 47 45 44 40 36 38 43 49 54 56 53 51 48 42 37 32 26 23 21 22 21 20 18
52 70 75 82 84 81 87 92 89 85 81 76 72 68 68 61 50 44 41 46 48 47 48 44 50 55 38 12 4 7 6 7 8 10 11 11 10 11 11 10 12 13 19 34 35 27 27 29 30 37 46 53 58 55 52 49 49 56 61 64 61 54 51 50 51 49 48 52 54 53 53 51 48 46 44 44 43 39 37 40 46 50 49 47 44 44 44 43 41 38 34 31 29 30 29 28 24
65 79 74 83 85 76 81 87 85 84 79 74 72 70 73 64 51 49 43 39 39 39 41 40 48 51 30 8 5 6 6 7 8 9 10 10 9 9 11 10 11 13 15 22 26 22 23 24 24 34 48 59 61 56 56 53 50 50 53 62 65 59 55 55 56 54 53 56 55 53 55 56 52 48 44 41 40 37 39 43 46 46 40 37 36 36 38 39 39 37 35 33 32 32 32 31 26
66 79 77 80 79 72 79 83 82 85 78 73 73 69 70 63 51 52 45 38 37 37 43 42 41 40 21 7 7 6 7 8 7 9 10 9 9 9 11 10 11 13 13 16 20 20 22 23 24 36 48 52 55 55 57 59 57 52 53 60 61 58 55 55 57 56 56 57 56 54 54 55 54 52 46 40 40 37 36 38 39 38 32 30 30 30 32 35 36 35 35 35 35 35 33 32 30
59 73 76 73 70 66 75 82 78 77 73 72 75 70 66 61 56 53 46 45 47 44 46 41 34 31 16 5 7 7 9 9 7 10 10 10 10 9 10 11 11 12 12 14 18 20 20 24 28 38 45 45 51 59 60 60 58 54 59 63 58 52 48 52 60 58 59 59 56 53 51 50 51 51 48 44 43 37 33 34 36 34 32 32 33 34 36 38 39 38 39 41 44 46 41 36 36
52 64 70 73 71 60 66 79 78 75 73 71 73 74 68 64 64 58 52 51 54 55 47 35 27 22 13 6 6 7 8 9 10 9 9 10 10 10 10 11 11 11 12 12 16 19 14 19 32 39 41 44 48 54 59 58 52 48 53 61 63 58 49 54 64 63 62 58 50 50 50 48 49 49 48 47 43 40 39 40 43 43 40 38 40 44 44 43 40 38 40 42 47 46 37 30 30
49 61 69 75 73 65 64 69 78 80 74 72 72 75 73 71 70 63 63 59 57 61 47 34 33 26 16 9 6 8 10 11 12 9 9 9 8 10 10 10 11 10 12 12 14 17 10 11 29 39 40 46 46 48 56 55 48 47 48 53 62 60 48 46 58 64 58 50 44 44 46 47 50 48 48 47 42 46 48 45 48 47 45 45 51 53 51 48 43 38 37 36 37 34 28 27 27
53 62 66 67 65 70 73 66 76 81 72 75 74 77 80 78 75 68 68 64 61 64 48 37 41 32 16 11 10 9 10 14 14 10 8 9 9 10 10 10 11 10 11 13 11 11 8 6 19 33 39 45 45 45 51 51 49 50 50 60 66 54 42 41 52 61 56 51 48 42 43 46 49 49 49 48 45 49 50 47 44 41 48 55 52 48 50 52 44 37 34 31 31 31 32 33 33
55 61 63 65 60 64 76 70 71 77 74 79 76 76 81 77 78 80 76 65 60 62 51 39 36 30 17 12 13 8 10 17 13 9 9 9 9 9 10 10 10 11 11 12 9 8 7 4 10 27 40 45 42 40 44 48 49 43 41 56 60 46 48 54 52 51 48 45 44 40 41 43 44 48 51 49 47 49 47 44 39 38 53 60 45 37 42 45 40 38 39 40 42 41 42 44 43
52 60 60 63 62 60 72 73 70 76 80 83 80 77 75 72 76 80 77 65 55 53 46 36 33 33 25 16 13 8 10 15 10 8 9 8 9 9 9 10 9 11 11 9 7 6 6 5 10 25 43 51 44 40 43 44 40 33 35 47 50 50 62 62 47 41 40 39 38 35 38 41 38 40 47 53 55 52 45 40 39 42 51 51 38 29 33 36 34 39 47 52 54 50 48 50 48
53 63 60 60 65 59 61 71 76 77 80 85 89 88 80 79 79 75 74 66 51 46 38 30 31 34 28 19 14 9 9 13 10 8 9 8 9 9 8 10 9 10 9 8 7 6 6 5 10 24 44 55 49 41 40 35 30 32 38 39 41 52 59 55 42 33 33 39 41 34 34 37 34 36 42 55 60 54 48 41 42 49 47 44 36 25 27 30 29 37 44 50 53 53 53 49 46
54 59 57 61 68 58 50 66 79 76 77 82 92 95 83 81 83 77 77 69 51 45 36 27 34 37 31 24 15 10 10 13 12 8 9 9 9 9 9 9 9 9 8 7 6 5 6 5 8 24 40 47 46 41 36 31 30 31 31 31 44 64 67 55 38 25 25 34 37 34 36 35 32 34 36 42 45 48 52 45 45 54 49 47 41 26 25 23 23 30 36 45 43 43 48 41 39
56 54 52 56 59 52 43 52 65 74 79 77 83 90 83 77 80 78 74 70 58 46 35 28 38 42 37 31 16 8 10 13 14 9 8 9 9 9 8 9 9 8 8 6 6 5 5 5 7 23 37 40 42 39 33 31 32 27 23 26 44 69 70 44 23 19 24 27 28 28 29 28 25 25 25 24 23 31 42 41 50 59 48 42 33 21 22 17 17 18 26 44 35 21 31 29 25
57 50 46 50 51 47 43 46 53 67 75 72 72 76 84 82 76 78 75 75 68 49 37 30 36 42 38 37 23 9 10 11 13 10 9 9 9 10 9 9 8 7 7 5 5 5 4 5 7 16 29 38 41 37 28 25 28 23 19 23 30 44 45 25 13 17 20 20 22 23 20 19 20 17 16 16 14 19 25 30 46 46 31 31 26 17 17 14 14 11 17 39 32 14 20 21 16
58 50 45 45 51 52 46 47 51 57 63 68 70 71 86 85 71 75 73 74 73 59 51 36 33 40 36 39 31 17 14 8 9 12 9 9 8 9 9 8 7 7 7 6 4 5 5 4 5 9 21 35 41 38 29 24 26 22 20 27 29 29 25 18 12 11 15 18 20 21 20 19 18 17 16 15 15 17 16 18 25 21 14 20 22 16 12 10 12 9 10 22 24 17 14 14 12
58 53 50 42 50 66 63 53 48 50 54 63 71 74 84 81 76 80 72 74 76 65 68 54 41 41 35 39 38 29 21 6 5 11 8 9 9 8 9 7 7 7 5 6 5 4 5 5 5 7 19 35 40 39 33 27 25 23 27 33 35 35 29 26 22 14 12 13 16 18 19 19 19 19 18 17 17 17 15 14 14 14 13 13 16 16 13 12 10 8 9 11 14 13 10 11 13
63 57 56 46 50 71 77 64 54 53 54 59 67 70 74 72 77 84 75 79 77 64 73 74 60 50 37 36 40 37 27 9 4 9 8 9 9 8 9 7 6 7 6 5 5 5 5 5 5 6 18 34 40 39 35 32 25 21 30 37 41 41 29 25 26 25 20 12 11 13 13 17 20 20 19 17 17 15 15 15 13 13 13 12 15 14 13 16 11 8 10 10 8 9 9 12 15
70 63 59 55 54 67 77 69 58 55 54 59 64 63 64 68 76 82 77 76 72 64 70 76 72 63 47 35 37 39 28 13 5 6 8 8 9 9 8 8 7 6 6 5 5 6 5 5 6 6 16 30 38 40 36 33 27 21 24 30 40 40 29 30 26 23 23 13 9 10 10 14 17 19 19 17 17 15 15 16 15 14 12 14 17 13 10 11 9 8 11 12 9 9 11 12 13
77 73 65 63 59 66 78 74 63 57 56 63 68 64 61 69 79 79 77 74 69 67 70 78 78 69 56 37 33 38 28 18 10 4 7 7 7 9 7 8 7 6 5 6 6 5 5 5 6 6 13 27 38 40 37 33 27 23 20 20 32 33 27 37 33 23 20 11 8 10 9 12 14 17 17 17 16 14 15 16 15 14 12 13 14 13 12 10 7 8 11 13 11 10 12 11 12
88 92 86 77 67 68 76 75 70 64 61 63 67 68 66 74 88 82 75 75 70 70 74 80 80 69 61 47 38 37 29 26 19 6 5 7 7 7 8 7 6 6 5 5 6 5 6 5 5 7 9 22 37 40 39 36 28 24 21 20 30 30 22 27 31 33 27 14 10 11 8 10 12 14 15 16 15 14 15 16 16 14 13 11 10 11 12 11 8 7 10 10 9 12 15 12 11
91 99 94 78 68 70 70 68 70 67 64 66 61 63 68 73 85 85 80 78 72 71 74 78 81 71 61 54 50 47 36 32 30 18 8 5 7 7 6 7 6 6 5 5 6 4 5 6 5 6 7 16 33 39 39 37 31 25 20 21 30 30 25 24 28 34 26 12 12 14 10 9 10 12 13 14 14 13 13 15 16 14 13 12 10 9 8 8 7 8 12 11 8 11 15 12 10
86 93 96 86 74 69 74 79 80 76 69 69 61 54 62 68 72 78 80 80 79 77 73 74 79 69 57 56 61 60 48 38 36 31 17 5 5 7 5 6 6 5 5 5 5 5 5 5 5 6 7 11 23 33 37 37 35 29 20 22 31 27 24 25 27 28 19 10 14 16 11 7 8 10 11 14 14 12 13 14 15 13 12 11 11 10 8 7 7 8 13 13 11 10 9 10 10
82 89 93 85 76 67 80 94 92 91 79 68 64 55 58 68 72 75 74 77 86 86 75 72 74 65 58 63 66 63 54 45 40 34 23 10 4 6 6 6 6 5 6 5 4 5 4 5 5 5 6 9 15 22 31 36 36 31 22 26 34 26 23 28 29 28 17 10 17 19 13 7 7 9 9 12 13 12 12 12 13 13 12 10 10 10 9 9 8 8 10 11 12 11 9 10 10
84 95 86 70 73 68 78 95 93 98 90 71 71 69 69 78 82 79 76 77 84 89 86 81 80 70 65 72 74 70 57 47 45 36 23 15 7 5 5 6 6 5 5 5 5 5 4 5 4 5 6 7 11 15 24 35 36 31 22 28 36 27 28 35 34 33 18 7 17 17 9 7 7 8 8 9 11 11 12 11 12 12 12 11 10 9 9 9 9 9 10 10 10 8 8 9 8
80 89 75 63 74 68 73 95 97 98 94 76 70 70 70 76 79 71 69 76 77 78 80 81 86 79 70 75 78 75 65 52 49 42 28 17 10 7 5 5 6 6 6 5 5 4 4 5 4 5 6 6 10 12 20 32 35 31 21 26 35 28 29 30 25 27 17 8 15 11 6 8 8 7 7 7 9 10 10 10 10 10 11 12 11 10 9 9 9 8 10 11 10 7 8 8 7
71 73 62 60 71 71 81 99 100 91 88 80 67 64 66 63 65 64 58 65 72 70 67 70 83 85 75 73 73 71 70 61 52 49 42 29 17 9 5 5 5 6 6 5 5 5 4 5 4 5 5 6 9 9 17 28 34 32 23 24 31 25 23 19 13 15 12 8 12 9 7 7 7 7 7 7 7 8 9 9 8 8 8 9 10 10 9 9 9 8 9 11 9 8 9 7 6
60 62 57 56 62 75 92 100 98 89 87 87 71 70 80 67 62 72 65 57 62 69 69 66 72 81 79 74 74 70 65 64 57 52 55 50 35 20 9 5 5 5 6 5 5 5 5 5 4 5 5 5 7 8 13 23 30 31 27 26 28 24 20 17 15 12 11 15 12 7 8 6 7 8 6 7 7 7 8 8 8 8 7 8 7 8 8 8 8 7 8 8 7 8 9 9 8
48 53 56 52 49 73 96 98 97 92 90 93 81 80 91 78 66 74 73 61 63 74 77 73 73 78 81 76 77 73 59 59 62 53 53 55 50 38 20 8 4 4 5 5 5 5 5 6 5 4 5 4 6 7 10 19 26 28 29 30 26 24 23 20 19 14 19 29 17 4 7 6 7 8 6 8 7 7 8 7 8 8 8 8 7 7 7 7 7 7 7 7 7 8 9 10 9
36 49 60 55 40 58 87 95 98 95 89 90 85 85 90 81 72 75 76 66 65 75 74 74 79 78 77 72 75 81 69 58 60 55 51 56 57 50 33 15 6 4 5 4 5 5 5 6 5 5 5 4 5 6 9 16 22 24 28 33 29 26 22 19 18 13 17 25 13 3 8 7 6 8 7 7 7 7 8 7 8 8 8 8 8 8 7 7 7 6 6 6 6 7 9 11 10
24 37 62 77 63 54 61 77 99 101 89 88 85 81 81 78 75 77 78 67 60 67 69 73 82 81 79 73 73 88 87 69 61 57 54 57 58 53 43 27 10 4 4 4 4 5 5 5 5 5 5 5 4 5 8 12 18 21 25 32 31 27 23 20 19 15 12 12 7 5 7 6 7 7 7 7 8 7 7 7 8 7 8 9 8 8 8 8 7 7 7 7 7 8 9 11 11
20 24 40 67 79 71 59 67 97 105 84 77 82 78 76 75 67 63 69 69 63 63 65 70 77 80 80 77 74 86 91 76 65 58 51 52 55 52 47 35 19 11 7 5 5 4 5 5 5 5 4 5 4 4 7 9 13 17 21 28 31 28 25 23 20 16 11 7 7 7 6 6 8 8 7 7 7 7 7 7 7 8 9 8 8 9 9 9 9 9 9 8 8 9 10 11 11
22 35 31 39 68 81 74 67 81 99 87 75 82 80 77 75 62 56 64 69 66 63 67 72 73 75 79 80 77 83 91 85 75 65 51 49 53 51 46 36 26 20 14 9 7 4 4 5 5 5 4 5 5 4 6 7 10 15 19 24 28 28 26 23 21 19 15 9 6 6 5 7 8 8 7 6 7 7 7 7 8 8 9 8 9 9 9 9 9 9 10 10 10 10 10 11 11
23 61 54 47 77 81 68 60 59 81 89 80 84 81 75 75 64 59 63 61 62 68 75 75 72 72 73 71 66 69 81 85 84 78 61 54 55 56 61 56 41 28 19 14 10 6 5 5 4 5 4 4 5 4 4 6 9 13 18 22 25 27 26 24 24 23 18 10 6 6 5 5 7 8 7 6 7 6 6 7 7 8 8 8 9 9 9 9 9 9 9 9 10 10 10 10 10
16 72 72 53 80 80 54 45 37 45 54 53 69 78 75 77 70 66 65 57 60 74 76 68 66 68 63 55 49 48 57 70 82 86 76 67 63 64 74 73 62 49 35 24 14 6 4 5 4 4 5 4 4 5 4 5 8 10 15 20 23 25 24 25 26 24 18 11 7 7 6 5 6 6 6 8 7 6 6 7 6 7 7 7 8 8 9 9 9 10 9 10 10 10 10 10 10
9 54 79 60 71 79 62 48 31 24 30 35 54 73 75 73 67 66 67 60 58 69 73 64 60 62 55 49 43 37 41 58 78 89 85 76 69 71 76 74 72 69 56 42 27 11 5 5 5 4 4 5 4 5 4 4 6 8 12 17 20 22 23 24 25 22 17 13 10 7 6 7 6 6 6 7 7 6 6 7 6 6 7 6 7 7 8 9 9 9 9 9 10 10 10 9 9
39 44 80 80 71 74 72 65 45 33 43 49 56 67 69 67 64 60 61 63 60 60 65 65 62 60 54 50 44 36 39 52 68 83 89 84 76 75 75 69 68 68 64 57 41 21 8 4 5 4 3 5 4 4 5 4 5 6 9 12 16 20 19 20 23 21 17 14 12 10 7 7 7 6 7 6 6 6 6 6 6 6 7 7 7 7 8 8 7 8 8 8 9 9 9 9 8
69 55 72 83 79 76 73 70 57 48 55 58 57 54 45 46 57 57 54 60 63 57 54 60 64 62 56 52 45 36 36 44 54 66 78 86 89 87 80 69 67 72 71 61 48 35 19 7 4 4 3 4 4 4 4 4 4 4 6 8 11 15 16 16 18 19 18 15 14 14 10 9 8 7 7 7 6 6 6 6 6 6 8 9 7 7 7 7 7 7 7 8 9 8 8 8 8
71 69 68 61 63 74 73 69 61 52 54 54 49 38 26 28 40 46 46 50 55 52 48 53 62 62 55 49 43 36 32 36 45 50 56 70 82 89 89 79 74 77 73 64 61 52 34 16 6 3 6 6 3 5 5 4 5 4 4 5 6 10 11 12 14 15 16 15 15 16 14 12 10 9 8 7 7 7 7 7 6 6 7 7 7 7 6 7 8 7 7 8 8 8 8 8 7
56 70 67 46 52 74 72 66 64 56 51 51 47 39 32 32 31 31 35 40 44 44 44 48 55 57 53 47 44 41 35 35 42 43 44 51 60 75 89 85 79 80 73 64 61 51 37 31 20 7 8 12 6 3 4 4 5 4 4 4 4 6 8 8 10 12 13 14 13 15 16 14 12 11 11 9 8 8 7 6 6 6 6 6 6 7 7 7 7 8 8 8 7 8 8 8 7
29 42 45 37 51 72 66 62 68 65 53 48 51 52 46 39 36 34 33 35 38 42 49 53 52 52 51 50 49 46 41 41 47 47 44 47 49 60 79 86 83 81 69 54 47 41 39 41 35 17 9 15 17 11 5 4 5 4 4 5 3 4 6 7 7 8 10 12 12 13 15 15 13 12 12 11 9 8 8 7 6 5 5 5 4 5 6 6 7 8 8 8 7 7 7 8 8
16 22 31 39 57 69 65 63 66 64 60 57 57 59 54 48 50 48 41 37 34 36 44 50 50 51 53 52 52 51 47 45 48 48 46 55 60 59 69 83 86 74 60 49 44 44 42 39 38 29 16 21 31 27 15 4 4 5 3 4 5 4 4 5 6 7 8 9 10 12 13 13 13 12 11 11 10 9 8 7 5 4 4 3 3 3 4 4 5 6 7 7 7 7 7 7 8
24 28 32 46 66 75 72 68 61 58 70 76 70 65 60 57 58 54 47 43 33 26 31 37 39 42 49 53 51 52 54 52 52 52 49 56 65 63 64 77 86 74 58 52 49 47 42 35 38 38 30 29 34 35 28 11 2 5 6 4 4 4 4 4 4 5 6 7 8 9 11 11 12 11 11 10 10 9 8 7 5 4 3 3 3 2 3 3 3 4 5 6 6 6 7 7 7
Wind_Speed
6 5 6 8 9 9 10 9 9 9 10 11 10 8 11 12 12 13 13 13 11 10 10 9 9 10 9 7 7 7 6 8 8 7 9 9 9 12 12 12 12 13 13 13 12 12 13 14 13 13 13 12 11 9 8 7 7 7 8 8 8 10 11 9 8 7 8 9 9 9 9 8 7 6 5 5 6 7 8 8 9 9 8 7 7 5 5 4 3 2 1 2 2 1 1 2 2
6 6 7 8 8 9 9 9 8 9 10 10 9 10 13 13 13 12 12 12 12 11 10 10 10 10 9 8 7 7 7 9 9 8 9 9 9 11 12 12 12 13 13 13 12 12 13 13 13 13 12 11 9 8 7 6 6 7 7 8 9 11 10 8 7 7 8 9 9 9 9 8 6 6 5 4 5 6 8 8 9 9 8 7 7 5 4 4 3 2 1 2 2 1 0 1 2
6 6 8 9 8 8 8 8 7 8 10 11 11 14 14 13 13 11 11 12 12 13 11 11 11 9 9 8 7 7 7 9 10 10 8 8 10 10 11 13 12 13 14 13 13 12 13 12 13 12 11 10 9 8 7 7 7 7 8 9 11 9 6 6 7 7 8 9 9 9 8 7 6 6 5 4 4 6 6 7 8 9 8 7 6 6 5 4 3 2 2 1 2 1 1 1 2
6 6 8 10 8 5 5 7 7 8 11 11 12 13 14 12 11 11 11 12 13 12 11 11 11 10 9 8 8 7 8 9 10 11 8 8 11 11 11 12 12 13 13 13 13 12 12 12 12 11 10 10 10 9 9 9 8 8 10 10 9 5 5 7 8 8 8 8 8 8 7 6 6 5 5 5 5 7 5 5 7 8 8 7 6 6 5 4 3 3 2 2 3 3 2 2 2
7 7 8 9 5 1 2 7 8 9 9 11 13 13 13 12 11 12 11 11 13 11 11 11 10 10 9 8 8 8 9 10 9 11 11 8 11 12 11 12 13 13 13 13 13 12 12 12 12 11 10 10 11 10 10 9 9 10 10 9 7 4 5 7 7 8 8 8 8 8 7 6 5 5 4 5 6 8 6 5 6 7 8 7 6 7 6 4 4 4 4 4 4 4 4 4 4
8 8 8 8 6 4 4 7 9 9 9 11 14 14 14 13 12 12 11 11 13 12 11 11 9 9 9 8 8 9 10 11 9 9 11 10 11 13 13 12 12 12 13 13 12 12 13 13 12 11 11 11 11 11 11 10 10 11 9 7 6 5 5 6 7 8 9 9 8 8 7 6 6 5 5 5 7 9 7 6 6 7 8 7 7 8 7 5 5 5 4 5 5 5 4 5 6
8 8 8 8 6 4 6 8 10 10 9 10 12 13 14 13 12 13 11 11 12 12 11 10 9 9 9 8 9 10 10 12 10 8 10 11 11 13 13 12 12 12 12 12 12 12 13 13 12 12 12 12 12 12 12 11 10 9 8 6 5 6 6 6 6 7 9 9 9 7 7 6 5 5 5 7 9 9 8 6 6 7 7 7 8 9 8 6 6 6 5 5 7 7 6 7 8
7 7 5 5 5 4 6 9 11 11 10 10 10 12 13 12 12 13 12 11 11 12 11 10 9 8 8 9 10 10 10 12 10 9 11 11 12 13 13 12 12 12 11 12 12 13 13 13 12 13 13 14 14 13 12 10 9 9 8 7 6 6 7 7 6 8 9 10 9 8 7 6 5 4 6 8 10 10 8 6 6 6 7 8 9 9 8 7 7 7 7 7 8 8 8 9 10
6 6 3 2 4 6 7 9 11 12 11 11 12 12 12 12 12 12 12 12 12 11 10 10 8 8 8 9 12 10 10 12 11 10 12 12 12 12 12 12 12 12 12 12 13 13 14 13 14 14 15 15 14 12 11 10 9 9 9 9 8 8 9 8 7 9 10 10 9 8 7 6 5 4 5 8 11 11 8 7 7 7 7 8 9 9 8 8 8 9 10 10 10 10 10 11 11
5 5 4 3 4 7 7 9 12 12 11 11 11 12 13 13 12 12 12 11 12 11 10 9 8 8 8 9 11 10 10 12 12 11 12 12 11 11 11 11 11 12 12 12 14 14 14 14 13 14 14 13 12 12 12 12 12 12 12 11 11 11 11 10 9 10 11 10 9 8 7 6 5 5 5 7 10 11 9 8 8 8 7 7 7 9 10 10 10 11 12 13 13 13 12 12 12
5 4 4 3 5 7 7 8 10 11 12 11 9 10 13 14 12 12 12 11 12 11 10 9 8 8 9 9 10 10 11 13 13 12 12 11 11 11 10 9 9 11 12 13 14 13 13 13 12 13 13 12 13 13 13 14 14 14 13 12 12 11 12 11 10 10 11 9 9 8 8 8 7 7 6 7 8 10 10 9 9 9 8 7 7 10 12 13 13 14 15 14 15 14 14 14 14
3 2 2 3 5 7 8 8 7 9 12 12 10 11 13 13 12 12 12 12 11 10 9 8 8 8 8 9 9 10 11 12 13 12 12 11 10 11 11 10 10 11 12 13 13 12 12 12 12 12 11 12 13 14 15 15 15 15 14 13 12 12 12 12 11 10 10 9 8 9 10 9 8 8 8 8 8 9 10 10 10 10 9 9 9 10 13 14 15 16 16 15 15 15 15 14 14
2 2 2 2 4 7 8 8 7 7 10 11 11 13 12 11 11 12 11 11 10 9 8 7 7 8 8 8 8 9 11 12 13 12 12 12 11 10 11 10 10 11 11 13 13 12 11 12 12 11 11 12 13 15 15 15 15 14 14 13 12 12 13 13 12 11 10 9 9 9 11 11 10 9 9 8 8 8 9 10 11 11 10 10 10 11 13 15 15 17 17 16 15 15 14 14 14
3 2 2 4 5 8 7 9 7 5 8 9 10 12 12 11 11 11 11 10 9 9 8 7 8 8 8 8 7 8 11 12 12 12 12 12 12 11 10 10 10 11 12 13 13 11 11 11 11 11 12 12 13 15 15 15 14 14 14 13 13 12 12 12 12 11 11 11 10 10 11 11 10 10 10 9 9 8 9 10 11 10 11 11 11 11 12 13 14 15 16 15 14 14 13 13 13
4 2 3 5 7 7 5 8 8 5 6 7 9 10 10 10 10 10 10 9 9 9 8 7 7 7 7 7 7 8 11 12 12 12 11 12 12 11 10 10 11 11 12 12 12 11 10 11 11 11 12 13 14 14 15 14 14 14 14 13 13 13 12 12 12 12 12 12 11 11 12 12 11 11 11 10 9 8 8 10 10 10 11 12 12 12 12 12 12 13 14 14 13 13 12 11 11
4 2 5 5 5 6 5 8 9 6 6 6 8 8 8 9 8 8 9 9 8 8 9 7 6 6 7 7 7 8 10 12 12 12 11 11 11 11 9 10 10 10 12 12 11 11 10 11 11 12 13 14 14 14 14 14 14 14 14 13 13 13 13 12 12 12 13 13 12 12 12 11 11 11 11 11 10 9 9 10 10 10 12 13 13 12 12 12 11 11 12 12 12 11 10 10 10
4 2 4 4 3 6 5 8 9 7 7 7 7 7 8 9 7 8 9 9 8 8 8 6 7 7 8 8 8 9 9 12 13 13 12 11 11 11 9 9 10 10 11 11 10 11 11 11 11 12 12 13 13 13 14 14 13 14 13 13 14 14 13 12 12 11 13 14 13 11 11 10 10 11 11 11 11 10 9 10 10 11 12 13 13 13 13 12 11 10 10 10 9 8 8 7 8
5 3 3 3 3 5 4 8 8 5 7 7 7 8 8 9 8 8 9 8 7 7 6 6 7 8 10 10 9 9 9 11 13 13 13 11 11 11 10 9 10 10 10 10 10 10 10 11 11 11 11 12 12 13 14 13 13 13 13 13 14 14 13 13 11 11 13 15 14 12 10 10 10 10 11 12 12 11 10 11 11 10 12 12 13 13 13 12 11 10 9 8 7 6 5 5 5
4 3 3 2 2 5 4 9 8 4 5 5 6 8 9 9 8 9 9 8 7 7 6 7 7 8 10 11 11 10 9 10 12 13 13 12 11 11 11 10 9 9 9 9 10 10 11 11 10 10 11 12 11 12 13 12 12 13 12 13 14 14 14 13 11 10 12 14 14 14 12 10 10 9 10 12 13 12 11 11 10 10 11 11 12 12 12 11 10 9 8 7 6 5 4 4 4
3 3 2 2 2 4 5 7 7 5 5 5 5 6 8 8 7 8 8 8 7 7 8 7 6 8 10 11 12 11 10 11 12 13 13 11 11 10 11 11 10 9 8 8 8 9 10 11 9 8 9 12 11 10 12 12 12 13 12 13 14 14 14 13 11 10 11 12 14 15 13 12 11 10 10 11 12 12 12 11 10 10 10 10 11 10 10 10 9 8 7 6 5 4 4 4 4
5 3 1 1 2 3 5 6 6 5 5 5 6 7 7 6 6 8 8 8 7 6 8 8 7 7 9 10 11 11 11 11 12 13 13 11 10 10 11 11 10 9 8 7 7 7 9 11 10 8 9 11 11 11 12 12 11 12 12 13 14 14 14 12 10 11 12 12 13 14 14 13 12 11 10 11 12 12 12 11 10 9 10 10 10 10 10 9 8 7 6 5 5 5 5 5 6
7 5 2 2 2 3 5 6 6 6 5 4 7 8 7 6 7 8 8 8 7 6 6 7 7 6 7 9 11 12 11 12 13 14 14 12 11 10 11 11 10 9 8 7 6 6 8 9 10 9 9 9 10 11 12 11 11 12 11 12 14 14 13 12 11 12 12 12 13 14 14 14 13 12 11 11 12 12 11 11 10 10 10 11 12 11 10 10 9 8 7 6 6 6 7 8 9
8 6 3 4 4 2 4 6 6 6 6 5 6 8 8 8 8 8 8 7 6 6 6 6 7 7 7 8 10 11 11 11 13 14 14 13 12 11 10 11 10 9 8 7 6 6 7 8 9 9 9 9 10 12 12 11 12 12 11 12 13 13 12 13 14 12 11 11 11 13 14 15 15 14 12 12 13 12 11 11 12 11 11 12 13 12 11 11 10 9 8 7 7 7 7 9 11
10 7 5 7 5 2 3 6 7 5 6 6 7 8 8 8 8 8 8 6 6 6 6 6 8 7 7 8 9 10 10 11 13 13 14 13 12 11 10 10 10 9 8 7 6 5 7 8 8 8 8 9 10 12 12 11 12 11 11 13 13 13 12 13 14 12 10 11 11 12 15 15 16 16 15 14 13 13 12 12 12 11 11 13 14 13 13 12 11 9 9 9 9 8 8 10 11
12 10 7 7 7 5 3 5 7 6 4 6 9 8 7 7 7 7 7 6 6 7 6 6 7 7 7 9 10 10 10 10 13 14 14 13 12 11 11 10 10 9 7 6 6 5 6 8 8 8 8 8 10 11 12 11 12 11 11 12 13 13 11 12 13 11 11 12 12 12 14 15 15 17 17 15 14 13 13 13 13 12 12 14 14 14 14 13 11 10 11 11 11 10 9 10 13
14 12 10 8 8 6 6 6 7 6 5 6 9 10 8 8 7 7 6 5 7 7 6 6 7 7 7 9 11 10 10 10 12 14 13 13 12 12 11 10 9 8 7 6 6 5 5 6 8 8 7 8 9 10 11 11 11 11 12 11 13 13 11 11 11 11 13 13 13 12 13 14 15 17 18 17 15 14 14 14 14 14 15 15 15 15 15 14 13 13 14 14 14 14 12 13 16
14 13 11 11 9 8 8 8 7 7 7 6 6 11 11 9 9 9 7 6 7 7 7 6 7 8 8 9 11 11 10 10 11 12 12 13 12 11 11 10 9 8 6 6 6 6 5 6 7 8 7 8 8 8 9 10 11 11 11 11 12 13 11 10 11 12 13 13 13 13 13 13 14 15 16 17 16 16 16 17 17 15 16 16 16 16 15 15 16 17 18 17 16 16 15 17 19
15 15 14 13 11 10 10 10 8 8 8 7 3 7 9 8 9 9 7 7 8 8 8 7 8 9 8 8 11 11 10 9 10 11 11 12 11 11 10 9 8 7 5 5 6 5 5 6 6 7 8 8 8 8 8 9 10 10 11 11 11 13 11 11 12 12 12 12 13 13 13 13 13 14 14 14 14 14 15 17 19 18 16 16 16 16 17 17 18 19 20 20 19 18 18 21 21
17 17 16 15 13 11 12 13 12 9 8 8 4 4 6 8 8 8 7 7 9 8 9 9 9 9 9 8 10 11 11 9 9 10 11 11 10 10 9 9 8 6 5 4 5 5 5 6 7 7 7 8 8 8 8 9 9 9 11 10 10 12 11 10 11 11 10 11 12 13 13 13 14 14 14 14 13 13 13 15 18 18 19 19 18 18 18 18 19 19 20 20 21 20 21 23 23
19 18 18 17 15 14 14 15 14 11 10 10 7 4 5 7 7 7 9 10 10 9 9 9 10 10 9 8 9 11 11 10 9 10 10 10 10 9 9 8 7 6 5 4 4 5 6 6 7 7 7 7 8 8 8 9 9 10 11 11 11 11 10 8 9 9 9 11 11 12 13 14 14 15 15 15 14 13 12 14 16 16 18 19 19 19 19 19 18 18 19 19 20 22 22 22 22
20 19 19 18 16 16 16 17 16 13 13 11 8 6 4 5 7 8 10 11 11 10 9 9 9 10 10 9 9 10 12 12 10 10 11 10 10 10 9 8 7 6 5 5 5 5 6 7 7 7 7 8 8 8 8 9 9 10 11 11 11 11 10 8 9 9 9 10 11 11 12 13 14 15 15 15 14 13 13 14 15 15 16 17 18 18 18 18 18 17 18 19 20 21 20 20 21
21 19 19 20 17 15 16 19 18 14 14 10 8 8 6 5 6 10 12 11 11 11 10 10 10 10 11 10 10 10 12 13 12 12 12 11 11 10 9 8 7 6 6 5 5 6 6 7 7 7 8 9 9 9 8 8 9 10 11 11 10 10 10 9 9 10 9 9 11 11 12 12 13 14 14 15 14 14 14 14 15 15 15 16 17 17 17 17 16 16 17 18 18 19 18 17 19
22 20 20 21 19 15 15 18 17 14 15 13 10 10 7 6 6 10 13 11 10 11 11 12 11 11 11 11 11 10 12 14 14 13 13 12 11 10 9 8 7 6 6 6 6 6 6 7 7 7 8 9 10 9 9 9 9 9 10 10 9 10 10 10 10 10 9 10 11 11 12 12 13 13 14 14 14 14 14 14 15 14 15 15 15 15 15 16 16 15 16 16 16 17 16 16 18
22 21 21 21 20 18 17 19 18 16 17 15 12 12 10 8 7 10 11 10 10 12 14 14 13 12 12 12 12 12 13 15 15 14 14 14 13 11 10 9 8 7 6 6 7 7 7 7 7 7 7 8 10 10 9 9 9 9 10 10 9 9 10 10 10 9 9 10 11 12 12 12 13 13 13 14 14 14 14 14 14 14 14 14 14 14 14 15 15 15 15 15 15 16 15 15 17
21 20 21 20 21 20 19 20 19 17 18 16 12 12 13 9 8 12 12 10 12 15 16 16 16 14 13 13 13 12 13 14 16 15 15 15 14 12 11 10 8 8 7 7 7 7 7 7 7 7 7 8 9 10 9 8 9 9 10 10 9 9 9 9 9 9 9 10 10 12 13 13 13 13 14 14 14 14 14 14 14 14 14 14 14 14 14 14 14 14 14 14 14 15 15 15 16
17 16 18 20 22 21 21 21 19 19 18 17 14 13 13 9 6 10 13 12 14 16 16 17 16 15 14 14 13 13 13 14 16 16 15 15 14 14 12 12 10 9 8 8 8 7 7 8 7 7 8 8 9 10 9 9 8 8 9 10 10 9 9 9 9 9 9 9 10 11 12 13 13 13 14 14 14 14 14 14 13 13 13 13 13 14 14 14 14 14 14 14 14 14 14 14 15
16 13 18 20 22 22 21 22 21 19 19 17 17 16 13 11 7 7 11 13 14 15 16 17 17 15 15 14 14 14 13 13 15 16 16 15 14 14 13 12 12 10 9 9 8 7 7 7 7 7 8 8 9 9 9 9 9 8 9 9 9 8 8 9 9 9 9 8 9 10 11 12 13 13 14 14 14 14 14 14 13 12 12 12 12 13 13 13 13 13 13 13 14 14 14 14 15
24 18 19 19 22 22 19 19 19 20 19 17 18 19 16 14 12 9 12 14 15 17 16 15 18 18 15 14 14 15 14 13 14 15 16 16 14 14 14 12 12 12 10 9 8 7 7 7 8 8 8 9 10 10 10 10 10 9 8 9 9 8 8 8 8 8 9 8 8 9 10 11 12 13 13 13 13 14 14 14 13 12 11 11 11 12 12 12 12 12 12 13 13 13 14 14 15
32 24 22 22 22 22 16 14 13 13 17 16 15 19 17 15 14 11 13 14 14 16 16 19 20 17 13 12 12 13 14 14 13 14 16 17 16 14 14 14 13 12 10 9 8 7 7 7 8 8 9 10 10 10 11 11 11 10 9 9 8 8 7 7 7 7 8 8 8 8 10 10 11 12 12 13 13 13 13 13 13 12 11 11 11 11 11 11 11 11 12 12 12 12 14 14 15
35 26 25 27 24 21 17 12 10 8 12 14 13 17 17 14 14 14 14 15 14 12 14 18 19 15 13 12 12 11 13 15 14 14 16 18 18 16 16 15 13 12 10 9 8 7 7 7 7 8 9 10 11 11 11 11 11 10 10 10 9 8 7 7 7 7 7 7 8 9 9 10 10 11 11 11 12 12 12 12 12 11 11 11 10 10 10 10 9 10 11 12 12 12 13 14 14
42 34 28 28 24 22 19 14 13 11 12 15 15 18 18 15 17 19 18 16 17 16 14 13 14 14 13 13 13 11 12 14 15 15 15 17 20 19 18 16 15 13 12 11 9 8 7 7 7 8 9 10 11 11 11 11 11 10 10 10 9 8 7 6 6 6 7 7 8 8 9 9 10 10 10 11 11 11 10 11 11 11 11 10 10 10 9 9 9 9 9 10 11 11 12 13 13
45 40 33 27 22 21 19 14 13 11 12 16 15 14 16 17 19 21 21 20 19 20 19 15 13 12 12 13 14 12 12 13 15 16 16 17 19 21 20 18 17 16 14 12 10 8 7 7 8 8 9 10 11 11 11 11 10 10 10 9 9 8 8 7 7 7 7 8 8 8 8 9 9 9 9 10 10 10 10 9 10 10 10 10 10 9 9 8 8 8 8 9 10 11 11 11 11
41 39 37 31 24 18 17 15 12 9 10 14 15 12 17 18 18 17 19 21 20 19 20 18 14 11 9 11 12 13 14 15 15 16 16 17 18 20 21 20 19 18 16 14 11 9 8 8 8 9 9 10 10 11 10 10 10 9 9 9 9 9 8 8 8 8 8 8 8 8 8 8 8 9 9 9 10 10 10 9 9 9 9 9 9 9 9 8 8 8 8 8 8 9 10 9 9
38 34 33 34 30 20 17 20 16 11 10 13 16 15 14 18 17 16 16 18 18 16 15 15 14 13 11 11 11 14 16 16 16 16 16 16 16 18 20 21 20 19 17 15 13 12 10 10 9 9 10 10 10 10 10 10 10 9 9 9 9 9 8 8 8 7 8 8 8 8 8 8 8 8 8 8 9 10 10 9 9 9 9 9 9 8 8 8 7 7 7 7 7 7 8 8 8
36 29 24 29 35 29 20 18 17 15 12 13 17 15 13 19 20 18 18 18 19 19 17 14 13 13 15 14 13 14 17 17 15 16 16 16 17 17 19 21 22 20 18 17 15 14 12 11 11 10 10 10 10 10 10 10 10 10 10 10 10 9 9 8 7 6 7 7 8 8 8 7 7 7 7 8 8 9 9 9 10 9 9 8 8 8 7 7 7 6 6 6 6 6 6 6 7
38 35 27 21 27 32 26 18 15 18 19 19 19 18 17 23 28 25 24 22 22 23 21 18 14 13 15 16 14 13 16 17 16 17 18 17 17 18 18 21 22 22 20 18 17 15 14 13 12 11 11 11 10 10 11 11 11 11 11 11 11 10 9 9 8 7 6 6 8 8 8 7 7 7 7 7 7 8 8 8 9 9 9 8 8 8 7 6 6 6 6 6 5 5 5 5 5
37 41 38 25 18 24 29 25 17 16 23 25 20 17 20 27 33 30 27 24 24 25 24 22 18 15 15 15 14 13 13 15 17 18 18 17 17 18 19 20 22 23 22 20 19 17 15 14 13 12 11 11 11 11 11 12 12 12 12 13 12 11 10 9 8 7 7 7 7 8 7 7 7 6 6 7 7 7 7 7 7 8 8 7 8 8 7 6 6 5 5 5 5 5 5 4 4
38 35 41 36 21 19 26 29 25 17 19 23 18 15 20 28 34 31 28 27 27 26 25 24 20 17 17 16 14 13 13 14 15 16 15 15 16 17 18 19 20 21 22 22 20 19 17 16 15 14 12 11 11 12 12 13 13 14 14 14 13 12 11 10 8 8 8 8 7 8 7 7 7 6 6 6 7 7 7 7 7 7 6 6 7 7 6 6 5 5 5 4 4 4 4 4 4
40 26 32 36 23 20 26 31 33 24 17 17 14 15 23 31 35 33 33 33 29 26 24 24 23 20 19 19 17 16 16 14 14 15 15 15 17 18 17 18 18 19 21 21 21 20 19 18 16 15 14 12 12 12 13 14 15 15 15 14 13 12 12 11 9 9 8 8 8 8 8 7 7 6 6 6 6 7 7 7 6 6 6 5 5 5 5 5 5 4 4 4 4 3 4 4 3
42 26 25 31 22 19 25 29 35 34 27 21 15 17 29 35 34 33 35 34 31 26 21 20 22 21 20 20 19 19 17 14 14 16 18 17 19 21 19 18 17 18 18 19 20 21 20 19 18 16 15 14 13 13 13 14 15 16 16 15 14 13 13 12 11 10 9 9 9 8 8 7 7 7 6 6 6 6 7 7 6 6 6 5 5 4 4 4 4 3 3 3 3 2 2 3 4
43 31 21 25 22 16 19 24 32 35 31 25 20 23 32 36 34 32 32 32 32 30 24 21 21 21 21 21 20 20 18 15 14 16 18 18 20 21 18 17 20 20 19 18 19 20 21 21 20 18 17 15 14 14 14 15 16 17 17 16 15 14 14 13 12 12 11 10 9 9 9 8 7 7 6 5 5 5 6 6 6 6 6 5 4 4 3 3 3 3 3 3 2 2 1 1 2
35 36 24 21 21 16 16 18 22 24 22 21 25 29 34 36 36 35 33 30 30 32 30 27 24 23 23 22 21 22 20 17 16 16 17 17 19 19 17 20 24 23 21 20 19 20 21 22 22 21 19 17 16 15 14 15 15 16 17 16 16 15 15 15 14 12 12 11 10 10 10 9 8 7 6 5 5 5 5 5 5 6 6 6 4 4 3 2 2 3 2 2 2 2 1 1 1
25 33 30 23 20 15 15 13 15 18 19 22 28 35 39 38 37 36 35 33 31 30 30 28 25 24 24 22 21 22 22 20 19 17 16 16 17 18 19 21 24 23 21 21 20 20 20 22 23 23 21 19 18 17 15 15 15 16 16 16 15 16 16 16 15 14 13 12 12 12 11 10 9 7 6 5 5 5 5 5 4 4 5 6 5 4 4 3 2 2 2 2 2 2 2 2 2
20 24 26 25 22 18 18 20 20 21 21 25 30 35 41 41 39 38 36 36 35 33 30 28 25 23 23 22 20 22 25 23 19 18 17 16 16 18 19 22 24 20 19 21 21 20 19 20 22 23 22 21 20 19 17 16 16 16 16 15 15 16 17 17 16 15 15 15 14 13 12 11 10 9 8 7 6 6 5 5 5 5 5 5 6 6 5 4 4 3 3 3 3 3 2 2 2
26 25 27 29 26 20 22 27 27 24 22 26 29 32 38 40 41 43 41 39 39 36 30 28 28 24 21 20 20 22 25 24 20 18 18 18 18 19 20 23 26 23 21 22 21 20 19 19 20 22 23 23 22 21 19 17 17 16 16 16 15 16 16 17 17 17 17 17 16 15 14 13 12 11 10 9 8 7 7 6 6 6 6 6 6 6 7 6 6 5 4 4 4 4 4 3 3
38 33 31 32 29 20 22 28 28 25 25 28 30 32 37 41 42 44 45 44 42 35 26 24 28 28 23 21 22 23 25 24 22 20 19 19 19 19 17 19 26 26 23 23 22 21 20 20 20 21 22 23 23 22 21 20 18 17 16 16 15 15 16 16 17 17 18 18 17 16 15 14 13 12 12 11 10 9 8 8 7 7 7 6 6 7 7 7 8 7 6 6 5 5 5 5 4
40 36 31 30 27 17 18 27 30 29 27 25 33 37 38 39 40 40 43 46 45 37 27 23 26 28 27 25 24 25 26 25 23 21 20 18 18 19 16 15 22 25 21 22 23 22 22 22 21 21 22 23 23 22 23 22 21 19 18 16 16 15 15 16 16 17 18 18 17 17 16 15 14 14 13 12 11 10 9 9 9 8 8 7 7 7 7 8 8 8 8 8 7 7 7 6 6
36 34 30 28 25 17 16 23 30 33 26 21 32 39 38 38 38 37 40 44 44 40 35 31 29 29 30 29 27 26 26 26 24 23 22 20 18 18 18 15 18 22 21 21 22 21 22 23 22 22 22 22 23 23 24 24 23 22 21 19 18 16 15 15 16 16 17 17 18 18 17 17 16 15 14 13 12 11 10 10 10 10 9 9 8 7 7 7 8 8 8 8 8 8 8 8 8
Wind_Direction
85 88 99 103 104 110 111 103 102 103 105 108 105 104 107 115 122 123 124 120 116 112 113 118 108 107 113 106 107 117 116 106 106 105 106 109 117 123 122 119 117 113 111 108 103 100 96 93 91 91 93 92 95 98 99 103 110 117 118 120 116 100 94 98 108 122 132 137 138 139 140 140 141 141 140 123 117 111 103 101 99 102 105 105 101 96 92 89 86 77 66 62 56 79 133 132 128
94 101 105 106 106 111 110 104 107 101 104 109 106 112 111 112 117 115 116 117 117 111 106 109 104 100 106 106 106 108 108 110 108 103 107 114 118 121 119 117 115 111 109 106 102 98 95 96 99 100 99 97 99 102 105 109 111 111 113 110 95 83 85 99 114 126 132 135 137 140 141 144 145 141 139 132 118 104 101 103 104 102 95 89 87 83 81 83 86 68 31 30 34 20 69 121 129
102 108 107 106 103 106 105 103 113 110 112 110 107 114 114 112 110 110 115 117 117 113 108 105 105 103 100 102 103 102 103 104 104 103 111 123 121 120 120 118 113 110 108 105 103 101 101 102 103 104 103 104 107 109 106 102 97 92 90 82 76 78 95 120 128 131 130 132 135 139 144 149 151 149 146 140 115 92 93 100 100 97 89 82 79 77 77 74 68 57 45 45 55 50 73 125 132
106 110 111 106 91 81 91 104 115 115 119 115 112 112 110 111 110 112 115 117 118 113 110 106 107 106 97 101 105 104 105 101 102 111 122 133 127 124 120 116 112 108 106 105 105 103 102 101 99 102 102 103 102 98 95 92 88 84 77 74 78 99 142 145 137 132 130 132 136 141 149 158 161 159 152 142 114 92 87 86 82 81 80 75 71 71 67 59 59 67 80 80 66 64 82 103 117
105 108 116 115 100 120 127 111 116 112 116 115 114 115 115 116 111 113 116 122 120 109 105 103 104 103 100 111 115 111 108 105 105 115 125 136 130 128 123 114 111 109 107 105 103 101 99 98 98 97 93 90 87 87 90 91 85 79 76 84 100 123 140 135 133 135 136 137 140 148 155 169 173 167 157 139 113 100 94 79 64 59 64 66 63 62 60 57 72 81 91 88 72 65 72 89 102
103 106 116 125 123 155 141 119 129 124 125 122 121 126 121 116 112 114 117 121 114 103 102 101 103 104 105 115 118 115 112 111 109 112 123 131 130 128 123 115 111 108 105 101 97 96 96 96 94 89 84 83 84 83 82 80 75 73 81 101 113 101 102 115 128 137 139 140 143 152 159 173 177 169 154 127 105 100 96 78 55 49 59 64 62 63 64 66 76 83 92 93 86 79 78 88 97
104 105 113 120 111 130 126 123 132 124 124 121 120 121 114 112 118 120 117 114 106 101 102 100 103 106 108 114 114 114 113 113 112 113 123 127 128 126 122 118 112 106 100 98 97 94 93 92 88 84 81 78 75 71 68 69 69 71 81 99 99 80 83 101 124 136 139 140 142 150 159 170 171 160 141 119 107 102 98 84 57 50 58 64 68 70 70 72 79 87 95 99 95 92 92 94 97
105 102 109 114 103 126 125 118 119 123 128 119 113 108 107 116 122 123 118 112 107 106 107 103 102 102 108 116 110 108 111 114 113 115 121 123 125 126 123 120 114 108 105 103 101 96 93 88 83 78 73 68 66 64 63 64 67 67 70 76 76 68 71 84 111 134 138 140 143 149 159 165 158 148 131 116 111 110 106 94 70 54 50 57 70 75 76 81 88 93 96 99 100 99 99 98 98
112 103 90 73 91 118 125 119 120 132 136 123 120 116 118 124 123 122 118 115 111 106 106 106 101 96 104 113 113 114 118 115 111 112 120 122 121 123 122 121 119 115 111 106 99 92 86 79 74 71 69 69 70 69 66 63 62 62 65 66 69 69 70 77 104 132 140 142 145 148 155 160 149 138 129 114 111 116 115 100 80 61 49 56 71 80 85 92 96 98 99 100 101 101 99 98 99
110 91 79 61 84 108 123 125 122 127 127 120 123 132 134 125 120 119 117 117 110 106 106 107 102 99 108 116 119 122 118 113 113 115 120 124 121 121 120 121 121 113 108 100 91 84 81 78 75 74 75 79 79 76 69 62 58 59 64 67 70 72 72 77 101 131 142 144 146 143 145 149 138 130 126 113 111 116 115 101 83 69 64 68 81 90 95 100 103 102 101 102 102 101 101 100 100
104 70 61 63 81 107 127 121 119 125 126 129 130 133 130 120 123 121 119 117 106 110 110 106 101 97 111 119 119 120 116 114 119 120 119 123 125 124 120 117 111 103 100 95 90 87 87 86 82 80 83 84 80 76 70 63 57 57 65 71 74 73 73 78 95 124 137 139 140 139 137 139 135 130 127 115 110 112 110 101 89 82 84 86 91 97 100 104 105 104 102 102 100 99 100 101 101
116 64 46 56 89 119 131 119 118 132 132 139 134 125 125 123 127 120 116 115 109 114 110 106 103 98 115 123 120 119 118 117 119 121 120 123 127 126 122 118 111 103 100 97 95 92 90 87 82 82 83 80 75 72 69 66 61 59 65 73 76 75 78 82 93 114 129 132 133 134 133 135 133 129 126 119 111 109 108 101 95 93 94 96 97 99 101 103 105 105 103 101 100 100 100 101 100
121 70 67 37 103 120 127 126 127 139 135 136 128 119 125 122 119 119 117 115 112 114 109 111 108 103 117 122 122 119 116 117 118 117 122 126 127 126 124 122 117 110 106 101 97 92 88 84 81 81 78 71 69 70 69 68 65 64 65 71 76 79 83 87 95 109 122 127 126 129 129 130 130 126 122 119 113 109 105 98 97 97 98 100 102 104 106 106 107 107 105 103 103 102 102 101 101
123 94 66 13 73 110 124 130 130 134 130 132 127 120 124 122 122 127 122 116 114 114 111 112 107 105 114 119 120 118 116 119 119 117 121 125 127 128 125 124 120 115 111 104 98 95 88 82 79 76 73 67 65 66 67 68 69 69 70 72 76 81 86 91 99 108 117 121 122 122 123 124 126 125 122 120 116 110 104 98 97 96 96 100 103 108 110 108 108 107 107 106 104 102 101 101 101
134 88 65 34 64 106 115 114 124 127 121 127 124 119 122 125 126 126 121 117 120 121 117 112 108 105 112 121 122 119 119 121 120 119 121 123 126 127 127 128 126 121 113 104 99 96 87 81 77 71 70 66 62 63 65 67 69 72 73 74 77 82 88 92 98 107 113 117 119 117 118 122 125 126 124 122 117 110 104 99 99 96 96 99 100 106 111 111 110 110 109 107 105 103 101 101 101
142 50 74 75 69 104 98 100 120 124 112 116 115 120 124 119 120 121 118 119 122 123 121 119 116 115 117 121 122 121 121 122 121 119 121 122 124 124 130 131 127 122 111 105 101 94 85 80 78 71 70 69 66 66 66 66 67 70 73 75 77 82 90 94 97 102 108 111 112 113 116 124 129 127 125 121 118 112 104 98 97 95 96 98 97 102 112 114 114 114 111 107 105 103 101 100 100
146 57 92 129 80 84 88 101 120 128 122 127 125 134 133 122 128 127 118 125 131 123 123 124 121 127 128 120 117 121 124 124 124 123 123 125 126 128 133 133 126 119 112 110 101 91 84 77 76 76 76 75 74 73 70 69 68 70 74 78 79 82 89 94 98 100 103 106 109 112 118 127 130 128 124 120 119 113 103 96 93 93 95 98 99 103 111 116 117 118 115 110 108 105 103 101 100
150 120 135 152 98 90 82 88 109 134 133 141 139 136 142 137 136 132 124 129 130 121 125 123 123 136 135 125 118 122 128 127 127 128 129 130 130 132 136 134 128 121 114 109 99 91 85 77 74 77 80 77 75 75 74 72 69 71 73 77 80 82 87 89 91 98 101 106 113 116 120 127 130 130 124 120 119 113 104 98 95 95 97 99 101 104 110 116 120 123 123 120 119 114 106 99 94
142 106 142 147 117 114 88 89 112 152 142 145 143 139 155 155 137 130 131 131 127 125 128 122 126 142 138 130 123 126 132 130 130 129 129 131 131 134 137 134 128 122 114 106 101 97 88 80 73 77 85 79 75 76 78 77 72 71 69 73 79 81 82 82 83 91 99 106 115 119 122 127 130 132 125 120 118 114 110 105 103 101 99 102 106 108 111 113 117 120 121 124 127 124 117 107 101
140 85 139 140 119 108 97 105 122 151 154 151 152 152 160 158 135 133 138 134 133 134 133 128 130 141 141 135 128 129 132 131 132 128 128 130 131 135 136 136 134 127 117 108 103 101 96 90 83 80 84 82 82 78 77 80 77 76 73 72 76 77 76 76 79 87 98 105 111 114 119 125 127 128 125 121 117 114 111 108 106 104 103 108 110 108 107 107 109 112 114 121 123 123 131 131 121
173 175 210 155 140 117 113 119 119 137 162 156 154 161 158 154 146 144 146 138 134 138 137 133 131 137 144 142 133 132 134 136 136 131 130 131 131 135 138 139 137 132 122 110 102 98 97 96 95 88 79 81 90 88 80 80 79 79 77 77 78 76 77 79 83 91 96 100 105 108 113 120 123 125 126 125 119 114 111 107 103 103 107 108 104 101 99 100 104 107 109 111 113 117 128 127 115
194 193 200 206 213 171 138 134 132 143 159 154 160 167 158 156 162 157 150 142 135 139 144 138 135 132 140 148 140 137 141 143 140 135 134 134 132 135 140 140 137 133 125 113 105 96 89 92 98 96 86 84 91 93 90 87 83 81 80 82 83 81 85 87 86 93 95 94 100 106 112 118 122 124 126 126 119 114 110 107 104 104 107 104 101 99 98 102 107 110 111 109 112 118 124 121 113
207 198 187 203 217 194 163 152 143 147 152 156 173 173 164 159 167 165 150 139 138 148 155 147 143 135 133 149 147 141 146 146 141 139 138 135 135 136 139 139 138 135 130 121 109 97 89 89 97 99 98 96 95 94 95 93 87 85 86 83 84 84 89 92 88 93 96 94 101 107 110 117 125 127 127 123 115 110 108 108 107 106 104 102 102 105 104 106 108 111 116 114 113 118 124 121 118
210 211 201 199 200 183 184 172 164 171 161 161 175 176 170 164 169 170 156 142 146 161 168 154 149 143 136 149 154 146 146 148 143 142 140 138 137 138 139 139 140 137 134 128 113 106 98 94 98 101 103 101 99 98 98 97 89 86 85 83 83 80 82 88 90 95 97 96 100 104 107 114 124 127 126 123 116 112 111 108 107 105 102 99 102 107 109 110 110 113 115 112 111 113 117 119 122
205 212 210 209 210 194 210 207 190 193 178 171 177 172 162 165 176 174 167 155 152 165 173 165 157 153 148 151 160 152 146 150 148 146 145 143 141 140 140 139 140 138 138 131 116 106 96 95 102 102 102 103 100 100 101 97 93 90 85 84 84 80 80 85 90 98 96 93 96 99 106 115 121 122 123 122 118 114 111 109 107 105 104 103 103 105 107 109 111 113 110 108 108 107 111 120 124
204 207 204 209 216 203 218 228 206 201 214 210 181 162 158 179 187 165 167 165 155 169 178 176 168 163 161 157 163 157 150 156 154 153 151 146 145 143 142 142 142 141 139 133 120 107 92 93 103 104 100 97 95 94 94 94 93 93 89 87 87 86 84 80 85 93 92 94 100 101 106 113 117 118 122 125 123 121 117 115 113 109 107 106 105 103 105 109 110 108 105 104 103 107 118 124 121
204 209 205 206 213 208 220 231 218 208 232 246 174 149 157 180 181 160 169 178 164 175 180 180 180 174 172 164 166 161 155 161 159 158 156 150 149 149 148 146 145 147 145 136 125 114 101 97 102 107 101 94 93 86 83 87 88 88 89 89 89 90 87 81 82 83 84 92 100 104 105 108 112 113 118 124 127 127 123 119 115 109 104 105 106 106 109 112 109 106 105 105 106 114 122 118 112
203 206 204 205 210 210 218 229 226 213 226 247 185 140 154 172 177 165 172 178 168 178 181 185 189 180 177 170 169 167 161 162 163 162 160 155 156 155 153 152 151 149 148 138 127 119 110 108 110 111 106 100 98 90 81 82 83 83 87 85 86 91 90 84 83 80 82 92 100 106 108 107 107 105 106 109 113 117 117 117 116 112 108 110 115 116 116 113 108 105 105 106 106 109 109 104 102
205 204 201 204 209 212 218 229 232 219 218 233 213 155 166 180 187 176 177 181 174 182 185 185 189 184 183 180 174 173 167 162 166 167 165 162 160 161 159 158 158 151 149 145 134 128 123 121 121 123 119 108 103 99 94 91 87 84 85 84 84 88 85 78 81 85 87 91 100 105 107 106 103 100 97 95 96 100 104 108 113 116 116 118 123 121 116 109 104 100 100 102 101 97 95 94 95
208 206 201 203 206 212 219 227 232 224 219 227 227 217 186 183 197 191 188 188 180 185 191 190 191 186 185 186 180 177 173 167 168 169 170 169 163 164 168 166 164 157 152 151 142 136 135 132 129 133 134 124 115 107 101 101 98 94 92 90 88 87 83 77 82 92 96 96 100 102 104 106 104 101 97 94 92 91 92 96 103 109 112 115 117 114 109 102 97 94 93 94 93 89 87 88 90
210 209 205 207 207 213 221 226 229 227 225 219 219 241 229 193 211 207 198 193 183 184 190 195 197 190 186 189 185 181 181 174 166 169 172 172 169 170 174 174 169 163 158 155 149 145 144 142 137 139 141 135 127 117 108 106 106 102 100 98 95 92 88 84 85 91 99 105 106 105 107 109 108 106 103 99 95 92 91 93 97 100 101 104 104 101 98 94 91 87 85 85 85 83 84 87 89
213 212 208 209 208 212 223 228 227 231 236 223 207 232 248 233 214 200 202 197 189 190 188 194 201 196 190 191 190 185 187 182 170 169 172 173 175 176 179 178 172 168 164 157 152 153 156 150 143 143 144 141 134 127 120 113 111 108 106 107 105 99 92 90 89 89 97 107 111 113 115 116 115 113 109 105 100 97 96 97 98 98 97 96 95 95 92 90 89 85 81 80 81 81 82 87 91
214 214 213 211 210 217 226 229 225 225 235 228 211 220 236 245 221 199 203 197 195 202 194 191 198 200 193 190 194 188 188 189 180 172 171 173 179 180 181 180 173 173 169 159 155 158 162 157 147 146 148 146 139 134 128 120 117 114 112 114 111 104 100 96 92 92 97 104 110 114 117 121 122 121 117 110 103 100 100 102 102 101 100 96 93 95 94 93 92 88 85 84 85 86 86 89 92
213 215 217 214 211 219 226 227 223 220 229 228 220 222 223 234 234 216 211 204 208 215 207 196 190 194 195 191 194 192 190 192 187 179 173 174 179 181 181 182 176 175 171 161 159 162 165 163 155 150 150 150 145 139 132 126 123 120 117 118 115 107 104 99 93 91 94 100 108 113 116 122 125 126 124 117 108 102 101 104 105 105 104 101 99 100 99 97 96 93 90 90 91 91 91 91 93
212 215 219 221 217 219 227 230 227 222 226 226 224 227 224 228 232 220 215 214 219 219 211 199 189 188 191 193 195 194 193 194 193 186 178 176 178 180 181 181 177 175 172 165 164 168 169 168 162 154 150 150 149 142 136 133 129 125 122 120 116 110 105 101 94 89 90 98 106 111 115 120 124 129 129 123 114 106 105 107 109 108 107 106 105 104 102 100 100 97 95 94 92 93 94 94 96
208 220 221 218 218 220 226 232 232 224 222 228 229 228 227 224 219 216 214 217 224 221 208 199 196 190 187 192 194 195 196 196 197 194 185 181 178 179 183 179 174 175 175 171 170 173 173 171 167 156 150 150 149 146 141 141 138 132 127 122 121 117 110 104 99 94 91 97 104 107 112 116 121 128 130 127 120 113 110 111 112 112 109 108 107 106 105 103 102 99 96 95 92 92 95 97 97
198 228 231 219 217 220 226 235 242 235 220 223 230 229 228 224 219 217 219 224 219 210 203 202 204 197 189 191 192 196 201 197 197 198 193 187 181 180 182 178 174 176 177 177 175 175 175 171 169 159 151 150 151 151 151 149 147 141 133 129 126 121 115 112 109 104 97 97 103 105 108 112 116 122 127 128 125 119 116 116 116 115 113 110 108 106 105 104 102 99 96 95 92 92 96 98 99
197 209 227 221 219 219 224 233 240 241 225 215 224 229 230 230 232 223 224 231 212 198 200 207 208 203 192 190 192 195 199 199 197 199 198 192 187 184 183 180 178 179 178 180 178 174 178 174 168 163 154 154 158 161 162 159 155 150 143 135 130 126 124 119 111 106 103 102 104 104 105 108 112 118 124 128 128 123 119 119 119 118 116 113 110 107 105 105 103 99 96 94 93 95 98 99 99
205 205 216 216 216 214 218 224 225 236 230 215 221 231 230 228 231 228 228 230 212 197 204 212 213 208 195 193 202 201 196 198 197 196 197 195 193 190 187 185 184 182 179 181 182 175 181 179 168 165 162 160 165 170 170 167 164 159 152 145 137 135 132 121 113 107 106 110 111 106 103 106 111 115 121 126 128 126 122 121 120 120 118 114 111 109 108 107 103 99 95 93 93 95 98 99 99
211 210 213 212 213 209 201 208 215 227 231 220 220 231 231 227 228 227 228 230 222 211 211 215 215 207 195 191 204 211 202 199 198 196 195 195 197 197 194 191 187 186 184 185 188 183 181 181 172 169 170 168 171 178 176 173 172 166 161 155 146 144 140 129 124 116 112 117 115 108 104 105 108 113 117 122 125 127 126 123 121 120 118 117 114 113 113 111 106 101 98 96 96 95 97 100 101
215 214 212 206 211 209 193 200 220 221 225 224 222 229 228 224 231 233 227 227 227 228 229 223 212 201 195 194 200 211 211 205 201 198 196 196 199 201 199 196 192 191 191 191 192 189 181 179 179 176 176 177 179 183 181 178 178 172 167 161 151 150 148 140 134 128 126 126 117 108 105 103 104 108 112 117 122 127 128 126 123 121 119 118 115 114 113 112 109 105 103 103 101 99 98 101 104
216 216 216 209 211 208 194 206 229 217 216 221 220 239 245 231 233 241 235 226 220 221 227 226 213 206 201 199 204 209 211 214 211 204 199 199 202 204 203 202 199 197 196 196 194 193 183 179 185 184 184 186 186 188 184 182 183 176 171 165 155 156 155 148 144 145 140 130 121 113 108 104 103 104 107 113 119 124 128 127 125 123 121 118 116 114 112 111 111 110 108 107 105 103 102 103 108
217 218 220 217 215 211 202 214 226 200 205 223 213 228 260 251 236 241 238 228 221 216 217 218 219 225 218 204 209 215 212 212 217 213 204 202 205 206 206 206 206 203 200 198 196 195 187 183 189 190 193 195 192 191 185 183 184 178 174 169 164 164 161 156 154 155 144 129 125 122 115 110 105 102 103 108 113 118 123 125 126 124 122 120 118 116 114 112 113 112 111 109 105 104 104 106 110
217 220 227 226 220 218 215 216 219 199 194 226 217 206 246 258 238 231 234 229 228 228 221 216 215 218 218 214 217 221 215 207 210 216 212 209 210 209 208 211 211 209 206 201 198 196 191 187 192 195 199 201 196 191 185 182 182 179 178 178 177 175 169 165 163 156 143 131 132 129 122 118 113 109 108 107 109 112 116 120 121 123 124 123 121 118 118 117 117 116 115 111 107 105 108 110 111
213 212 220 230 224 218 214 211 218 218 201 213 222 207 221 250 243 232 235 233 232 239 239 231 217 207 209 215 218 217 215 211 208 214 216 214 214 213 212 214 214 214 212 207 202 199 195 192 195 200 204 205 199 189 183 182 181 178 181 187 188 184 178 172 167 160 150 143 142 136 131 128 122 118 115 112 111 110 112 114 116 119 122 124 123 122 122 124 124 123 121 117 114 113 115 119 119
212 209 201 214 222 218 218 212 209 223 211 197 211 212 210 236 247 243 239 238 235 237 241 238 227 214 213 216 217 215 215 217 212 211 214 214 216 216 216 216 215 215 215 213 208 203 199 196 198 204 208 209 202 190 183 181 181 181 184 192 194 192 188 178 172 166 157 152 148 142 139 135 130 125 122 118 116 115 113 112 112 114 118 121 123 124 125 128 129 129 130 128 128 129 130 134 134
210 214 208 211 215 210 214 211 204 220 209 185 189 212 216 232 243 242 240 240 240 239 240 241 233 220 221 223 223 223 221 220 216 214 214 216 222 222 220 220 216 214 215 215 213 208 204 201 201 206 210 212 207 195 186 182 181 184 188 195 197 196 194 185 177 169 159 158 156 151 148 143 139 134 129 125 122 120 115 111 112 111 113 116 117 119 121 125 126 126 132 136 140 144 145 149 149
206 213 216 219 220 210 208 208 210 215 202 182 180 206 225 240 244 243 243 242 244 246 245 244 239 222 217 223 227 228 228 227 226 225 221 222 230 233 231 227 219 214 214 214 214 211 208 206 205 207 210 213 212 200 191 186 185 187 193 199 200 198 197 191 181 175 168 166 164 162 159 156 156 149 140 135 127 124 120 115 115 113 113 115 113 115 119 120 119 118 123 129 137 146 152 154 159
205 210 216 214 216 222 211 209 214 214 201 191 189 204 226 241 244 244 245 243 243 248 246 241 239 228 216 217 224 224 224 228 232 233 229 226 232 234 234 236 231 221 216 214 215 214 212 210 209 211 212 214 216 209 197 192 191 193 198 202 201 198 197 193 187 183 179 175 170 171 170 170 172 167 159 150 138 134 130 124 122 119 117 118 116 118 121 119 117 118 118 118 127 142 152 153 157
205 206 214 206 205 224 218 212 218 221 222 217 201 212 230 237 240 241 241 240 238 240 239 236 239 237 226 222 225 222 220 226 231 231 228 229 230 223 222 232 234 229 225 218 215 216 216 216 214 215 217 216 218 217 206 199 197 198 202 204 201 199 198 195 193 189 187 183 176 174 179 184 185 183 178 166 152 148 141 135 134 128 122 118 119 123 126 125 123 123 123 123 126 140 155 154 154
209 206 212 205 197 217 226 220 223 226 231 228 210 216 233 238 239 239 238 236 234 235 241 247 250 248 238 230 228 225 220 221 229 231 227 226 225 217 216 226 224 223 230 226 216 216 217 220 220 219 220 219 219 222 216 209 205 204 205 205 202 199 198 200 199 194 191 188 182 180 185 191 195 195 190 180 171 168 159 153 148 141 133 128 129 132 134 135 132 132 138 137 138 151 179 170 162
212 208 208 199 191 207 224 224 229 228 225 221 212 216 231 238 239 241 241 240 236 235 241 249 253 253 245 235 231 228 222 217 222 230 231 226 223 221 226 233 224 217 222 224 219 217 216 218 222 222 221 222 220 223 223 218 216 213 210 208 204 200 200 203 203 199 195 193 189 189 191 194 198 202 200 195 194 190 182 174 166 158 150 145 146 146 148 158 154 149 155 158 164 184 217 235 204
208 211 210 200 190 202 216 217 225 221 215 217 216 221 229 236 240 242 242 241 240 239 238 241 248 250 243 236 235 234 230 222 219 225 232 232 232 236 240 238 226 213 214 220 220 218 217 218 221 223 222 223 223 224 225 224 224 223 220 215 208 204 204 206 205 202 200 199 198 197 197 198 200 203 206 208 210 209 205 196 189 181 169 162 163 165 169 178 183 178 177 181 203 216 225 247 254
201 212 216 213 199 194 207 209 208 207 212 222 223 229 235 238 241 244 244 243 243 242 237 233 239 245 240 235 237 238 236 231 225 227 231 232 237 242 241 234 227 220 222 226 223 219 221 222 223 224 223 223 223 223 224 225 226 229 228 223 216 210 209 209 207 204 203 203 204 203 203 204 203 203 207 212 215 220 220 214 208 204 194 184 183 184 182 186 199 205 199 203 219 228 227 239 255
203 202 207 211 197 193 212 207 196 195 207 223 227 230 237 240 242 245 247 247 245 243 239 232 233 241 240 234 237 241 241 240 238 236 236 236 236 236 235 228 223 222 225 230 228 223 225 229 228 227 226 225 225 223 222 225 227 231 232 231 226 219 215 214 211 208 206 207 208 209 209 210 209 207 209 212 216 221 227 227 222 216 210 201 198 197 193 191 200 209 213 218 226 234 233 233 244
218 213 210 207 192 198 221 205 190 187 196 219 230 225 226 231 236 240 242 243 243 241 238 230 230 238 242 238 238 241 243 244 243 241 240 244 243 241 248 240 225 218 218 226 229 225 226 229 230 229 229 230 229 226 223 223 226 230 233 235 235 228 222 220 218 215 213 211 212 213 215 216 215 214 213 215 217 220 227 233 232 228 223 214 207 206 203 202 202 203 210 217 225 236 242 240 242
223 223 214 201 191 196 216 206 193 181 182 216 235 228 225 226 229 233 238 240 240 237 236 231 230 237 240 239 239 241 244 246 246 244 242 248 251 249 259 253 225 214 214 221 225 224 225 228 229 231 231 232 232 230 226 223 224 227 230 233 236 234 230 226 225 224 221 219 217 217 219 221 221 221 220 219 220 221 225 231 234 232 228 223 218 212 210 210 210 207 207 210 215 225 234 240 243
214 217 209 198 198 198 197 202 196 183 186 225 236 230 231 232 231 234 239 242 240 239 239 237 236 240 240 239 239 240 243 246 248 248 246 248 252 251 258 255 227 215 217 222 225 228 229 229 231 232 233 235 237 237 233 226 223 226 228 230 231 233 232 230 230 230 228 226 223 222 223 223 224 225 225 225 226 225 225 228 232 232 230 227 225 222 220 219 221 219 216 213 214 219 225 232 237